Regional Weather Roundup
Issued by NWS

Home | Current Version | Previous Version | Graphics & Text | Print | Product List | Glossary Off
Versions: 1 2 3 4 5 6 7 8 9 10 11 12 13 14 15 16 17 18 19 20 21 22 23 24 25 26 27 28 29 30 31 32 33 34 35 36 37 38 39 40 41 42 43 44 45 46 47 48 49 50

000
ASUS43 KLOT 020821
RWRIL

ILLINOIS REGIONAL WEATHER ROUNDUP
NATIONAL WEATHER SERVICE CHICAGO/ROMEOVILLE IL
300 AM CDT WED SEP 02 2015

NOTE: "FAIR" INDICATES FEW OR NO CLOUDS BELOW 12,000 FEET WITH NO
SIGNIFICANT WEATHER AND/OR OBSTRUCTIONS TO VISIBILITY.

* THESE STATIONS ARE NOT UNDER NWS QUALITY CONTROL. THEY ALSO MAY NOT
  REPORT WEATHER SUCH AS PRECIPITATION OR FOG.

ILZ001-002-007-009-015-016-024-020900-
NORTHWEST ILLINOIS

CITY           SKY/WX    TMP DP  RH WIND       PRES   REMARKS
MOLINE         CLEAR     72  67  84 CALM      30.01S
STERLING*      CLEAR    N/A N/A N/A CALM      30.00S
SAVANNA*       CLEAR     70  67  92 SE5       30.01R
$$

ILZ003-004-008-010-011-017-018-020900-
NORTH CENTRAL ILLINOIS

CITY           SKY/WX    TMP DP  RH WIND       PRES   REMARKS
ROCKFORD       PTCLDY    70  67  90 S6        30.03S
FREEPORT*      CLEAR     71  67  89 SW7       30.04R
ROCHELLE*      CLEAR     66  65  97 CALM      30.04S FOG
DE KALB*       CLEAR     69  67  95 S7        30.04S FOG
PERU*          CLEAR     70  67  89 S7        30.04S
$$

ILZ005-006-012>014-019>023-020900-
NORTHEAST ILLINOIS

CITY           SKY/WX    TMP DP  RH WIND       PRES   REMARKS
CHICAGO-OHARE  PTCLDY    74  69  85 SW5       30.02S
CHICAGO-MIDWAY PTCLDY    76  68  76 SW9       30.02S
AURORA         CLEAR     68  66  93 CALM      30.04S FOG
LANSING*       CLEAR     70  67  90 SW5       30.04S
JOLIET*        CLEAR     71  69  94 CALM      30.03F
WAUKEGAN       PTCLDY    74  69  85 VRB5      30.00S
DUPAGE AIRPORT CLEAR     71  67  87 SW3       30.03S
KANKAKEE*      CLEAR     68  67  95 CALM      30.06S
WHEELING       PTCLDY    75  68  78 S5        30.03S
MORRIS*        CLEAR     70  67  92 CALM      30.03S
ROMEOVILLE*    CLEAR     69  67  93 SW6       30.04S
NORTHERLY ISL    N/A     76  67  73 SW8         N/A
$$

LMZ740>746-020900-
SOUTHERN LAKE MICHIGAN

STATION/POSITION SKY/WX   TEMP    WIND        PRES    VSBY  WAVE
                          AIR SEA DIR/SP/G                  HT/PER
                          (F)     (DEG/KT/KT) (MB)    (MI)  (FT/S)
SOUTHERN BUOY              72 70  200/ 10/ 12 1015.4F         1/ 4
WILMETTE HARBOR            71 60   10/  6/  6   N/A           1
HARRISON CRIB              75     240/  7/ 10   N/A
BURNHAM HARBOR             76     260/  6/ 10   N/A
CALUMET HARBOR             75     200/  7/  9   N/A
BURNS HARBOR               75     210/ 10/ 12 1017.6S
MICHIGAN CITY              74     180/ 10/ 11   N/A
MICHIGAN CITY 6N           74 72  230/  6/  8   N/A           1/ 2
ST. JOSEPH                 74 73  230/  8/  8   N/A           1/ 3
$$

ILZ025>027-034>036-040-047-049-050-058-095>099-020900-
WEST-CENTRAL ILLINOIS

CITY           SKY/WX    TMP DP  RH WIND       PRES   REMARKS
QUINCY         CLEAR     73  68  84 S6        30.04S
GALESBURG*     CLEAR     70  67  92 CALM      30.03S
MACOMB*        CLEAR     73  69  86 SW5       30.05S
JACKSONVILLE*  CLEAR     75  71  87 S6        30.05S
PITTSFIELD*    CLEAR     72  69  90 CALM      30.06R
$$

ILZ028>032-037-038-041>044-048-051>054-059>061-020900-
CENTRAL ILLINOIS

CITY           SKY/WX    TMP DP  RH WIND       PRES   REMARKS
PONTIAC        CLEAR     73  71  93 SW5       30.05F
BLOOMINGTON    CLEAR     73  71  93 SW7       30.07F
DECATUR        CLEAR     73  68  84 SW6       30.07S
PEORIA         CLEAR     74  68  81 S6        30.04F
LACON*         CLEAR     71  68  88 SE3       30.03S
LINCOLN*       CLEAR     70  67  89 CALM      30.05S
SPRINGFIELD    CLEAR     75  70  84 SW7       30.05F
TAYLORVILLE    CLEAR     70  68  94 S5        30.06S
$$

ILZ033-039-045-046-055>057-062-063-020900-
EAST-CENTRAL ILLINOIS

CITY           SKY/WX    TMP DP  RH WIND       PRES   REMARKS
CHAMPAIGN      CLEAR     70  68  93 S5        30.08S FOG
RANTOUL*       CLEAR     73  70  92 SW7       30.07S
MATTOON        HAZE      73  67  81 SW6       30.06F VSB 1
PARIS*         CLEAR     67  66  97 CALM      30.09R
$$

ILZ079-100>102-020900-
SOUTHWEST ILLINOIS

CITY           SKY/WX    TMP DP  RH WIND       PRES   REMARKS
ALTON          CLEAR     70  68  95 SE3       30.06F
BELLEVILLE     CLEAR     70  70 100 CALM      30.06S FOG
CAHOKIA*       CLEAR     72  68  87 CALM      30.06S
SPARTA*        CLEAR     69  68  98 CALM      30.09R
$$

ILZ064>066-069>071-074>076-080>082-084>086-088>090-092>094-020900-
SOUTH-CENTRAL ILLINOIS

CITY           SKY/WX    TMP DP  RH WIND       PRES   REMARKS
CARBONDALE     CLEAR     68  66  93 CALM      30.08S FOG
CAIRO*         MOCLDY    68  68 100 CALM      30.08R FOG
EFFINGHAM*     CLEAR     67  65  91 CALM      30.09S
MARION         CLEAR     72  70  94 CALM      30.08F FOG
MT. VERNON     CLEAR     66  63  88 CALM      30.08F VSB 1
CENTRALIA*     CLEAR     70  69  97 S5        30.07S
SALEM*         CLEAR     73  69  88 S6        30.08S
METROPOLIS*    MOCLDY    67  67 100 CALM      30.09S FOG
$$

ILZ067-068-072-073-078-083-087-091-020900-
SOUTHEAST ILLINOIS

CITY           SKY/WX    TMP DP  RH WIND       PRES   REMARKS
LAWRENCEVILLE  CLEAR     68  67  96 CALM      30.08S FOG
FLORA*         CLEAR     67  66  96 CALM      30.08S FOG
FAIRFIELD*     CLEAR     67  67  99 CALM      30.07S FOG
HARRISBURG*    CLEAR     67  67  98 CALM      30.08F
ROBINSON*      CLEAR     66  65  97 CALM      30.09S FOG
CARMI*         CLEAR     65  65 100 CALM      30.07F FOG
$$

ABBREVIATIONS USED IN REMARKS
   TC - TEMPERATURE IN CELSIUS
  WCI - WIND CHILL INDEX
   HX - HEAT INDEX
  VSB - VISIBILITY
$$



USA.gov is the U.S. government's official web portal to all federal, state and local government web resources and services.